Location: Akgöl Batakl???
(38.9482°N, 31.8837°E)
Time: 05:08:06
(UTC+00:00)

Cosmos 2360 Rocket - Pass Details

Date: 08 May 2026
Orbit: 831 x 845 km, 71.0° (Epoch: 6 June)

Event Time Altitude Azimuth Distance (km) Brightness Sun altitude
Rises 20:14:55 0° 346° (NNW) 3,412 6.5 -29.6°
Reaches altitude 10° 20:17:41 10° 357° (N) 2,473 5.4 -29.9°
Enters shadow 20:22:28 31° 54° (NE) 1,459 3.4 -30.3°
